SCP
0 0 0 0 0 0 0 0 0 0 0 0 0 0 0 0 0 0 0 0 0 0 0 0 0 0 0 0 0 0 0 0 0 0 0 0 0 0 0 0 0 0 0
0 0 0 0 0 0 0 0 0 0 0 0 0 0 0 0 0 0 0 0 0 0 0 0 0 0 0 0 0 0 0 0 0 0 0 0 0 0 0 0 0 0 0
0 0 0 0 0 0 0 0 0 0 0 0 0 0 0 0 0 0 0 0 0 0 0 0 0 0 0 0 0 0 0 0 0 0 0 0 0 0 0 0 0 0 0
0 0 0 0 0 0 0 0 0 0 0 0 0 0 0 0 0 0 0 0 0 0 0 0 0 0 0 0 0 0 0 0 0 0 0 0 0 0 0 0 0 0 0
0 0 0 0 0 0 0 0 0 0 0 0 0 0 0 0 0 0 0 0 0 0 0 0 0 0 0 0 0 0 0 0 0 0 0 0 0 0 0 0 0 0 0
0 0 0 0 0 0 0 0 0 0 0 0 0 0 0 0 0 0 0 0 0 0 0 0 0 0 0 0 0 0 0 0 0 0 0 0 0 0 0 0 0 0 0
0 0 0 0 0 0 0 0 0 0 0 0 0 0 0 0 0 0 0 0 0 0 0 0 0 0 0 0 0 0 0 0 0 0 0 0 0 0 0 0 0 0 0
0 0 0 0 0 0 0 0 0 0 0 0 0 0 0 0 0 0 0 0 0 0 0 0 0 0 0 0 0 0 0 0 0 0 0 0 0 0 0 0 0 0 0
0 0 0 0 0 0 0 0 0 0 0 0 0 0 0 0 0 0 0 0 0 0 0 0 0 0 0 0 0 0 0 0 0 0 0 0 0 0 0 0 0 0 0
0 0 0 0 0 0 0 0 0 0 0 0 0 0 0 0 0 0 0 0 0 0 0 0 0 0 0 0 0 0 0 0 0 0 0 0 0 0 0 0 0 0 0
0 0 0 0 0 0 0 0 0 0 0 0 0 0 0 0 0 0 0 0 0 0 0 0 0 0 0 0 0 0 0 0 0 0 0 0 0 0 0 0 0 0 0
0 0 0 0 0 1 0 0 0 0 0 0 0 0 0 0 0 0 0 0 0 0 0 0 0 0 0 0 0 0 0 0 0 0 0 0 0 0 0 0 0 0 0
0 0 0 0 0 1 1 0 0 0 0 0 0 0 0 0 0 0 0 0 0 0 0 0 0 0 0 0 0 0 0 0 0 0 0 0 0 0 0 0 0 0 0
0 0 0 0 0 1 1 1 0 0 0 0 0 0 0 0 0 0 0 0 0 0 0 0 0 0 0 0 0 0 0 0 0 0 0 0 0 0 0 0 0 0 0
0 0 0 0 0 1 1 1 1 0 0 0 0 0 0 0 0 0 0 0 0 0 0 0 0 0 0 0 0 0 0 0 0 0 0 0 0 0 0 0 0 0 0
0 0 0 0 0 1 1 1 1 0 0 0 0 0 0 0 0 0 0 0 0 0 0 0 0 0 0 0 0 0 0 0 0 0 0 0 0 0 0 0 0 0 0
0 0 0 0 0 0 1 1 1 0 0 0 0 0 0 0 0 0 0 0 0 0 0 0 0 0 0 0 0 0 0 0 0 0 0 0 0 0 0 0 0 0 0
0 0 0 0 0 0 0 1 1 0 0 0 0 0 0 0 0 0 0 0 0 0 0 0 0 0 0 0 0 0 0 0 0 0 0 0 0 0 0 0 0 0 0
0 0 0 0 0 0 0 1 1 0 0 0 0 0 0 0 0 0 0 0 0 0 0 0 0 0 0 0 0 0 0 0 0 0 0 0 0 0 0 0 0 0 0
0 0 0 0 0 0 0 0 1 0 0 0 0 0 0 0 0 0 0 0 0 0 0 0 0 0 0 0 0 0 0 0 0 0 0 0 0 0 0 0 0 0 0
0 0 0 1 0 0 0 0 1 1 0 0 0 0 0 0 0 0 0 0 0 0 0 0 0 0 0 0 0 0 0 0 0 0 0 0 0 0 0 0 0 0 0
0 0 0 1 1 1 0 0 1 1 0 0 0 0 0 0 0 0 0 0 0 0 0 0 0 0 0 0 0 0 0 0 0 0 0 0 0 0 0 0 0 0 0
0 0 0 1 1 1 1 1 1 1 0 0 0 0 0 0 0 0 0 0 0 0 0 0 0 0 0 0 0 0 0 0 0 0 0 0 0 0 0 0 0 0 0
0 0 0 1 1 1 1 1 1 1 0 0 0 0 0 0 0 0 0 0 0 0 0 0 0 0 0 0 0 0 0 0 0 0 0 0 0 0 0 0 0 0 0
0 0 0 0 1 1 1 1 1 1 0 0 0 0 0 0 0 0 0 0 0 0 0 0 0 0 0 0 0 0 0 0 0 0 0 0 0 0 0 0 0 0 0
0 0 0 0 0 1 2 2 1 1 0 0 0 0 0 0 0 0 0 0 0 0 0 0 0 0 0 0 0 0 0 0 0 0 0 0 0 0 0 0 0 0 0
Wind_Speed
9 11 10 11 12 13 13 13 13 12 12 12 12 12 13 13 13 14 14 15 15 15 16 16 16 16 16 17 17 16 16 16 16 16 16 16 16 16 16 15 13 10 16
12 12 10 11 12 13 13 12 12 12 12 12 12 12 12 12 13 13 14 14 14 14 14 15 15 15 15 15 15 14 13 12 12 11 13 13 15 15 16 15 14 10 15
12 12 10 11 12 12 12 12 11 11 12 12 12 11 12 12 12 13 13 13 13 13 13 13 14 14 14 13 13 12 11 9 8 7 8 6 9 14 14 14 14 14 15
12 11 11 11 12 12 12 11 11 11 11 11 11 11 11 11 11 12 12 12 12 12 12 13 13 13 12 12 11 10 8 8 8 7 5 6 6 12 13 13 14 14 14
9 10 12 11 12 12 11 11 11 11 11 11 11 11 10 10 11 11 11 11 12 12 12 12 12 12 11 11 10 8 7 9 9 6 5 6 5 10 12 12 13 13 13
9 11 11 11 11 11 11 11 11 11 11 10 10 10 10 10 10 10 10 11 11 11 11 11 10 10 10 9 8 7 8 9 6 5 6 6 5 9 11 11 11 12 11
8 10 10 10 10 10 10 10 11 11 10 10 10 10 10 9 9 9 9 10 10 10 10 9 9 9 9 8 7 6 8 11 3 5 5 6 6 9 9 10 10 11 11
8 9 10 9 9 9 9 9 10 10 10 10 9 9 9 9 8 8 9 9 9 9 9 8 8 8 7 6 6 6 8 8 5 5 6 5 6 8 8 9 9 9 10
8 8 8 8 8 8 8 8 9 9 9 9 9 9 8 8 7 7 7 7 7 8 7 7 7 6 5 5 4 5 8 9 4 2 6 4 6 7 8 8 9 9 9
7 6 8 8 8 7 6 8 9 9 9 9 9 8 8 7 7 6 6 6 6 7 7 6 6 5 4 3 2 4 7 8 2 4 4 4 6 6 6 6 7 7 7
6 5 6 7 7 8 8 9 8 8 9 9 8 9 8 5 5 4 5 6 6 6 6 6 5 4 3 2 2 4 6 3 2 3 4 4 5 4 4 5 5 5 5
7 6 5 6 6 7 7 7 5 6 6 6 6 6 5 4 4 5 7 7 6 5 5 6 5 4 4 3 4 4 3 3 1 2 3 4 3 3 2 3 3 4 3
8 7 5 5 6 6 5 6 4 4 5 6 7 7 5 3 4 4 3 4 4 5 4 4 4 4 4 3 3 3 2 2 1 1 3 3 2 2 1 1 2 2 2
9 9 7 6 6 6 5 5 4 4 4 4 6 7 4 3 3 3 3 4 4 3 4 4 4 5 4 3 2 2 2 1 1 1 3 4 2 2 2 2 3 2 3
10 10 9 8 7 6 5 4 5 4 4 5 5 5 5 4 4 4 3 4 4 4 4 4 4 4 4 4 3 3 3 2 2 1 2 5 4 4 4 4 5 5 5
10 10 10 10 8 7 6 5 4 4 4 4 5 6 6 5 5 4 4 4 4 4 4 4 5 4 4 3 4 4 4 3 3 3 3 4 7 6 7 7 7 7 7
10 10 10 10 10 9 8 7 5 5 5 4 5 6 7 6 6 5 5 5 4 4 4 3 4 3 3 4 4 5 4 4 4 4 4 3 4 8 9 10 9 10 9
10 11 11 9 10 10 9 7 6 5 6 5 5 5 8 8 6 5 5 5 5 4 4 4 3 3 3 4 4 4 4 4 5 5 4 4 4 4 7 11 11 11 12
11 11 11 12 11 11 10 7 7 6 6 6 5 5 7 8 8 6 5 5 6 5 4 5 4 4 4 4 4 4 4 4 5 5 6 6 6 5 5 8 12 12 13
10 11 12 12 12 11 9 7 6 7 7 6 6 7 8 8 9 7 6 6 6 5 5 5 5 5 4 4 4 4 4 4 4 5 7 6 6 7 6 6 6 8 13
10 11 12 13 13 11 9 10 10 9 8 7 7 8 9 9 10 9 7 7 7 6 7 7 5 6 5 3 2 3 4 7 8 7 6 6 6 7 6 7 5 5 5
11 11 12 13 13 13 11 10 8 8 7 8 7 9 10 10 11 10 10 8 8 7 8 8 7 5 5 5 4 2 3 4 6 9 7 6 7 5 6 7 6 6 5
12 13 12 13 13 14 13 8 6 6 6 8 10 10 12 12 12 11 12 10 9 9 8 9 8 9 7 6 6 5 4 5 3 3 6 6 6 5 5 5 7 7 7
11 11 12 12 13 12 13 12 12 12 13 13 10 9 11 13 13 13 12 12 11 9 10 10 10 8 8 6 5 6 6 4 2 3 3 4 5 6 6 5 6 7 7
8 9 10 11 12 12 13 15 15 14 12 8 9 10 11 12 14 14 14 13 12 11 11 10 10 11 9 8 6 5 7 6 6 4 5 3 3 4 6 7 6 6 7
6 7 8 10 11 11 13 14 16 16 14 11 11 11 11 10 11 15 14 14 13 12 12 12 11 12 11 11 9 7 6 5 6 7 9 6 5 5 6 6 7 7 6
Wind_Direction
114 118 127 126 124 121 117 112 108 106 103 99 96 93 91 89 87 85 83 81 80 80 79 78 77 75 74 73 72 72 71 71 72 71 69 69 68 65 61 61 64 58 63
116 122 128 128 125 122 119 116 113 110 107 103 99 97 95 94 92 90 88 86 85 84 83 82 80 78 77 75 74 73 72 71 69 66 71 67 66 66 63 61 62 62 62
116 125 130 127 126 124 122 120 118 115 111 107 103 100 98 98 96 95 93 91 90 89 88 87 84 81 79 77 75 73 69 57 42 37 66 72 66 67 66 62 59 58 59
125 135 132 129 128 127 126 124 122 119 116 113 109 106 103 102 100 99 99 97 95 94 92 90 88 85 83 80 76 73 59 33 13 30 65 67 65 67 65 62 58 57 56
123 122 125 133 133 132 131 129 127 124 121 118 116 113 110 107 104 102 101 101 98 97 95 93 91 88 85 82 77 66 40 10 357 41 64 71 65 67 66 63 62 59 58
119 119 130 135 137 137 137 135 133 131 128 124 122 119 116 112 108 105 102 104 101 99 98 97 94 91 87 82 74 51 17 359 355 60 59 65 61 64 66 67 66 64 62
123 124 135 136 139 141 143 142 140 137 134 130 127 125 122 119 115 110 108 108 107 104 102 101 98 95 90 83 66 33 5 351 31 77 71 62 53 62 66 68 67 65 65
129 129 135 137 141 145 147 146 144 141 139 136 133 131 128 126 124 120 116 114 114 112 108 105 103 97 92 82 57 16 353 349 12 72 79 67 47 61 68 69 71 68 67
132 134 141 149 150 149 149 148 148 144 141 140 137 133 130 129 126 119 118 121 122 120 116 112 109 104 98 86 52 359 338 340 342 55 78 62 42 57 67 68 71 71 67
136 148 154 161 162 159 155 152 149 146 143 140 134 130 129 127 122 122 129 131 133 131 128 123 118 115 110 100 47 328 321 322 322 69 74 57 44 54 59 72 77 74 73
153 167 168 167 167 164 164 157 151 149 148 142 138 142 145 157 152 155 146 137 140 140 143 142 139 136 136 160 218 278 305 297 25 74 78 59 48 46 58 81 89 86 82
177 184 180 173 170 168 164 154 164 165 159 170 160 166 192 185 159 153 137 139 142 149 159 165 169 180 202 204 220 245 268 283 330 111 105 81 52 30 46 91 107 104 100
185 189 190 184 176 171 156 163 171 171 169 191 172 180 196 165 139 139 139 144 156 168 181 178 184 218 225 214 196 215 238 302 317 105 121 113 70 5 335 185 145 137 145
189 189 194 191 184 179 169 174 171 172 172 185 177 180 178 163 169 171 168 174 181 189 196 186 202 222 225 227 235 255 258 258 274 121 145 154 170 275 287 233 214 201 192
193 190 191 193 193 187 181 179 178 179 176 184 176 182 177 172 182 185 186 181 185 190 192 199 210 214 212 222 223 229 245 251 260 236 164 184 202 234 252 243 239 235 227
198 193 190 194 197 193 189 186 186 184 181 186 179 185 188 183 183 184 189 190 197 198 192 196 210 208 208 214 222 225 230 236 235 231 208 197 211 223 236 244 247 244 242
196 193 191 194 196 199 197 194 193 190 185 194 186 186 190 195 191 184 187 190 201 203 201 200 217 211 210 213 219 225 224 230 234 232 228 211 208 218 226 237 244 246 246
192 193 193 191 196 201 202 199 198 197 193 196 193 189 193 198 198 189 190 191 192 194 193 196 210 210 219 220 223 226 219 218 227 232 233 228 219 211 217 226 234 240 245
192 191 192 191 196 200 201 202 204 203 202 198 200 199 197 198 202 197 195 194 189 191 194 198 202 203 213 219 224 228 225 221 221 223 228 230 226 221 212 218 223 231 240
191 191 192 192 196 196 198 204 209 210 208 205 205 205 200 199 201 202 200 199 193 191 197 200 203 206 210 212 225 235 233 234 229 225 227 227 225 224 219 216 215 228 235
190 193 193 194 195 193 196 201 205 211 209 209 211 209 208 204 201 203 204 202 200 199 200 200 198 207 214 207 230 264 257 239 235 230 224 222 224 221 217 217 212 213 225
196 198 199 198 195 196 201 202 204 206 211 214 212 214 213 210 206 205 206 205 203 202 203 202 199 202 208 191 183 204 273 274 241 228 217 217 222 217 218 218 215 216 216
200 200 203 203 200 198 198 194 195 203 208 211 214 216 215 214 211 208 207 207 205 204 208 206 201 202 209 206 191 181 203 237 273 246 217 215 215 217 221 219 220 220 219
207 201 201 203 203 199 194 198 198 204 212 215 213 214 212 213 215 212 209 209 210 209 210 208 206 205 202 210 207 213 218 209 224 289 276 231 218 220 223 222 224 225 222
209 204 203 203 205 201 198 200 204 213 218 217 212 212 212 211 214 214 212 211 213 214 213 208 206 207 207 209 206 199 221 237 231 233 262 255 242 232 224 225 227 226 222
219 207 203 205 209 206 203 203 207 214 215 214 214 215 214 212 211 212 212 213 215 216 216 213 210 210 211 212 213 207 195 200 207 216 237 243 242 236 225 225 227 227 223